This is the latest recevied weather packets stored in our database for station/object DM4XI-13. If no packets are shown the sender has not sent any weather packets the latest 10 day(s).
| Time | Temp. | Humidity | Pressure | Rain* | Wind** | Luminosity | Snow |
|---|---|---|---|---|---|---|---|
| 1777923410 | 18.89° C | 46% | 1009.5 hPa | 0 mm | 0.89 m/s, 311° | 0 W/m² | - |
| 1777923349 | 18.89° C | 46% | 1009.4 hPa | 0 mm | 0 m/s | 0 W/m² | - |
| 1777923288 | 18.89° C | 46% | 1009.5 hPa | 0 mm | 0.45 m/s, 353° | 0 W/m² | - |
| 1777923227 | 18.89° C | 46% | 1009.5 hPa | 0 mm | 0 m/s | 0 W/m² | - |
| 1777923166 | 18.89° C | 46% | 1009.4 hPa | 0 mm | 0.45 m/s, 257° | 0 W/m² | - |
| 1777923105 | 18.89° C | 46% | 1009.3 hPa | 0 mm | 0.89 m/s, 308° | 0 W/m² | - |
| 1777923044 | 18.89° C | 46% | 1009.3 hPa | 0 mm | 0.45 m/s, 282° | 0 W/m² | - |
| 1777922983 | 18.89° C | 46% | 1009.4 hPa | 0 mm | 0.89 m/s, 293° | 0 W/m² | - |
| 1777922923 | 18.89° C | 46% | 1009.2 hPa | 0 mm | 0.89 m/s, 261° | 0 W/m² | - |
| 1777922861 | 18.89° C | 46% | 1009.4 hPa | 0 mm | 0.45 m/s, 332° | 0 W/m² | - |
| 1777922800 | 18.89° C | 46% | 1009.5 hPa | 0 mm | 0.45 m/s, 260° | 0 W/m² | - |
| 1777922739 | 19.44° C | 46% | 1009.3 hPa | 0 mm | 0.45 m/s, 242° | 0 W/m² | - |
| 1777922678 | 19.44° C | 46% | 1009.5 hPa | 0 mm | 0.45 m/s, 237° | 0 W/m² | - |
| 1777922618 | 19.44° C | 45% | 1009.3 hPa | 0 mm | 0.45 m/s, 219° | 0 W/m² | - |
| 1777922555 | 19.44° C | 45% | 1009.3 hPa | 0 mm | 0.45 m/s, 222° | 0 W/m² | - |
| 1777922495 | 19.44° C | 45% | 1009.5 hPa | 0 mm | 0.45 m/s, 253° | 0 W/m² | - |
| 1777922434 | 19.44° C | 45% | 1009.5 hPa | 0 mm | 0.89 m/s, 296° | 0 W/m² | - |
| 1777922373 | 19.44° C | 45% | 1009.5 hPa | 0 mm | 0.89 m/s, 241° | 0 W/m² | - |
| 1777922312 | 19.44° C | 45% | 1009.4 hPa | 0 mm | 1.34 m/s, 301° | 0 W/m² | - |
| 1777922251 | 19.44° C | 45% | 1009.2 hPa | 0 mm | 0.89 m/s, 273° | 0 W/m² | - |
| 1777922190 | 19.44° C | 45% | 1009.2 hPa | 0 mm | 1.34 m/s, 310° | 0 W/m² | - |
| 1777922128 | 19.44° C | 45% | 1009.3 hPa | 0 mm | 0.45 m/s, 236° | 0 W/m² | - |
| 1777922068 | 19.44° C | 45% | 1009.3 hPa | 0 mm | 1.34 m/s, 304° | 0 W/m² | - |
| 1777922007 | 19.44° C | 45% | 1009.3 hPa | 0 mm | 0.89 m/s, 346° | 0 W/m² | - |
| 1777921946 | 19.44° C | 45% | 1009.4 hPa | 0 mm | 0.45 m/s, 262° | 0 W/m² | - |
* Rain latest hour (hover to see other rain measurements)
** Current wind speed in m/s (hover to see current wind gust speed)